This is the latest recevied weather packets stored in our database for station/object KK7ISX. If no packets are shown the sender has not sent any weather packets the latest 10 day(s).
| Time | Temp. | Humidity | Pressure | Rain* | Wind** | Luminosity | Snow |
|---|---|---|---|---|---|---|---|
| 1777785229 | 16.11° C | 55% | 1013.5 hPa | 0 mm | - | 0 W/m² | - |
| 1777784926 | 15.56° C | 55% | 1013.4 hPa | 0 mm | - | 0 W/m² | - |
| 1777784623 | 16.11° C | 54% | 1013.6 hPa | 0 mm | - | 0 W/m² | - |
| 1777784320 | 16.67° C | 54% | 1013.4 hPa | 0 mm | - | 0 W/m² | - |
| 1777784018 | 16.67° C | 51% | 1013.3 hPa | 0 mm | - | 0 W/m² | - |
| 1777783714 | 17.22° C | 49% | 1013.4 hPa | 0 mm | - | 0 W/m² | - |
| 1777783411 | 17.78° C | 49% | 1013.4 hPa | 0 mm | - | 0 W/m² | - |
| 1777783108 | 17.78° C | 47% | 1013.3 hPa | 0 mm | - | 0 W/m² | - |
| 1777782805 | 18.33° C | 46% | 1013.3 hPa | 0 mm | - | 0 W/m² | - |
| 1777782501 | 18.33° C | 45% | 1013.3 hPa | 0 mm | - | 0 W/m² | - |
| 1777782198 | 18.89° C | 44% | 1013.2 hPa | 0 mm | - | 0 W/m² | - |
| 1777781894 | 19.44° C | 43% | 1013.2 hPa | 0 mm | - | 0 W/m² | - |
| 1777781592 | 19.44° C | 43% | 1013.2 hPa | 0 mm | - | 0 W/m² | - |
| 1777781289 | 19.44° C | 42% | 1013.1 hPa | 0 mm | - | 0 W/m² | - |
| 1777780986 | 20° C | 41% | 1013.2 hPa | 0 mm | - | 0 W/m² | - |
| 1777780683 | 20° C | 41% | 1013 hPa | 0 mm | - | 0 W/m² | - |
| 1777780381 | 20.56° C | 40% | 1013 hPa | 0 mm | - | 0 W/m² | - |
| 1777780078 | 21.11° C | 39% | 1012.9 hPa | 0 mm | - | 0 W/m² | - |
| 1777779774 | 21.67° C | 44% | 1012.9 hPa | 0 mm | - | 0 W/m² | - |
| 1777779472 | 21.11° C | 45% | 1012.8 hPa | 0 mm | - | 0 W/m² | - |
| 1777779169 | 21.11° C | 40% | 1012.5 hPa | 0 mm | - | 0 W/m² | - |
| 1777778867 | 21.11° C | 38% | 1012.9 hPa | 0 mm | - | 0 W/m² | - |
| 1777778566 | 21.11° C | 38% | 1012.4 hPa | 0 mm | - | 0 W/m² | - |
| 1777778263 | 21.67° C | 37% | 1012.5 hPa | 0 mm | - | 0 W/m² | - |
| 1777777961 | 21.67° C | 36% | 1012.5 hPa | 0 mm | - | 0 W/m² | - |
* Rain latest hour (hover to see other rain measurements)
** Current wind speed in m/s (hover to see current wind gust speed)